SCP
0 0 0 0 0 0 0 0 0 0 0 0 0 0 0 0 0 0 0 0 0 0 0 0 0 0 0 0 0 0 0 0 0 0 0 0 0 0 0 0 0 0 0
0 0 0 0 0 0 0 0 0 0 0 0 0 0 0 0 0 0 0 0 0 0 0 0 0 0 0 0 0 0 0 0 0 0 0 0 0 0 0 0 0 0 0
0 0 0 0 0 0 0 0 0 0 0 0 0 0 0 0 0 0 0 0 0 0 0 0 0 0 0 0 0 0 0 0 0 0 0 0 0 0 0 0 0 0 0
0 0 0 0 0 0 0 0 0 0 0 0 0 0 0 0 0 0 0 0 0 0 0 0 0 0 0 0 0 0 0 0 0 0 0 0 0 0 0 0 0 0 0
0 0 0 0 0 0 0 0 0 0 0 0 0 0 0 0 0 0 0 0 0 0 0 0 0 0 0 0 0 0 0 0 0 0 0 0 0 0 0 0 0 0 0
0 0 0 0 0 0 0 0 0 0 0 0 0 0 0 0 0 0 0 0 0 0 0 0 0 0 0 0 0 0 0 0 0 0 0 0 0 0 0 0 0 0 0
0 0 0 0 0 0 0 0 0 0 0 0 0 0 0 0 0 0 0 0 0 0 0 0 0 0 0 0 0 0 0 0 0 0 0 0 0 0 0 0 0 0 0
0 0 0 0 0 0 0 0 0 1 1 1 0 0 0 0 0 0 0 0 0 0 0 0 0 0 0 0 0 0 0 0 0 0 0 0 0 0 0 0 0 0 0
0 0 0 0 0 0 0 0 0 1 1 0 0 0 0 0 0 0 0 0 0 0 0 0 0 0 0 0 0 0 0 0 0 0 0 0 0 0 0 0 0 0 0
0 0 0 0 0 0 0 0 0 0 0 0 0 0 0 0 0 0 0 0 0 0 0 0 0 0 0 0 0 0 0 0 0 0 0 0 0 0 0 0 0 0 0
0 0 0 0 0 0 0 0 0 0 0 0 0 0 0 0 0 0 0 0 0 0 0 0 0 0 0 0 0 0 0 0 0 0 0 0 0 0 0 0 0 0 0
0 0 0 0 0 1 1 1 1 1 1 1 0 0 0 0 0 0 0 0 0 0 0 0 0 0 0 0 0 0 0 0 0 0 0 0 0 0 0 0 0 0 0
0 0 0 0 0 1 1 1 1 1 1 1 1 1 1 0 0 0 0 0 0 0 0 0 0 0 0 0 0 0 0 0 0 0 0 0 0 0 0 0 0 0 0
0 0 0 0 0 1 1 1 1 1 1 1 1 1 1 1 1 0 0 0 0 0 0 0 0 0 0 0 0 0 0 0 0 0 0 0 0 0 0 0 0 0 0
0 0 0 0 0 0 1 1 1 1 1 1 1 1 0 0 0 0 0 0 0 0 0 0 0 0 0 0 0 0 0 0 0 0 0 0 0 0 0 0 0 0 0
0 0 0 0 0 0 1 1 1 1 1 1 0 0 0 0 0 0 0 0 0 0 0 0 0 0 0 0 0 0 0 0 0 0 0 0 0 0 0 0 0 0 0
0 0 0 0 0 0 0 0 0 0 0 0 0 0 0 0 0 0 0 0 0 0 0 0 0 0 0 0 0 0 0 0 0 0 0 0 0 0 0 0 0 0 0
0 0 0 0 0 0 0 0 0 0 0 0 0 0 0 0 0 0 0 0 0 0 0 0 0 0 0 0 0 0 0 0 0 0 0 0 0 0 0 0 0 0 0
0 0 0 0 0 0 0 0 0 0 0 0 0 0 0 0 0 0 0 0 0 0 0 0 0 0 0 0 0 0 0 0 0 0 0 0 0 0 0 0 0 0 0
0 0 0 0 0 0 0 0 0 0 0 0 0 0 0 0 0 0 0 0 0 0 0 0 0 0 0 0 0 0 0 0 0 0 0 0 0 0 0 0 0 0 0
0 0 0 0 0 0 0 0 0 0 0 0 0 0 0 0 0 0 0 0 0 0 0 0 0 0 0 0 0 0 0 0 0 0 0 0 0 0 0 0 0 0 0
0 0 0 0 0 0 0 0 0 0 0 0 0 0 0 0 0 0 0 0 0 0 0 0 0 0 0 0 0 0 0 0 0 0 0 0 0 0 0 0 0 0 0
0 0 0 0 0 0 0 0 0 0 0 0 0 0 0 0 0 0 0 0 0 0 0 0 0 0 0 0 0 0 0 0 0 0 0 0 0 0 0 0 0 0 0
0 0 0 0 0 0 0 0 0 0 0 0 0 0 0 0 0 0 0 0 0 0 0 0 0 0 0 0 0 0 0 0 0 0 0 0 0 0 0 0 0 0 0
0 0 0 0 0 0 0 0 0 0 0 0 0 0 0 0 0 0 0 0 0 0 0 0 0 0 0 0 0 0 0 0 0 0 0 0 0 0 0 0 0 0 0
0 0 0 0 0 0 0 0 0 0 0 0 0 0 0 0 0 0 0 0 0 0 0 0 0 0 0 0 0 0 0 0 0 0 0 0 0 0 0 0 0 0 -0
Wind_Speed
8 12 11 12 14 14 14 14 13 13 13 13 13 13 13 13 14 13 13 13 13 14 14 13 13 12 12 12 12 13 14 14 15 15 15 16 16 16 17 16 12 12 16
10 13 11 11 13 14 14 13 13 13 13 13 13 13 13 13 13 13 13 13 13 13 13 13 13 12 11 11 11 11 12 13 13 11 9 11 14 15 16 16 15 12 15
10 14 13 11 12 13 13 13 12 13 13 13 12 12 13 13 13 13 13 13 13 13 13 13 13 12 11 10 10 10 11 11 11 8 6 9 12 14 15 15 15 15 15
10 13 12 11 12 13 13 12 12 12 12 12 12 12 12 12 12 12 12 12 13 13 13 13 13 12 11 10 9 10 10 10 9 5 6 8 9 13 13 14 14 14 14
10 12 11 10 11 12 12 12 11 11 12 12 12 12 12 12 12 12 12 12 12 13 13 13 12 12 12 11 10 10 9 9 6 5 7 7 8 11 12 12 13 13 13
9 11 11 9 10 11 12 11 10 10 11 11 11 11 12 12 12 12 12 12 12 12 13 13 12 12 12 11 10 10 9 7 3 6 7 7 7 10 11 11 12 12 12
7 9 10 8 8 10 11 11 10 9 10 11 11 11 12 12 12 12 11 11 12 12 12 12 12 12 12 11 11 10 10 7 6 6 6 7 8 9 9 10 11 11 12
5 7 8 7 6 8 9 10 10 9 9 9 10 11 11 12 12 11 11 11 11 11 11 11 11 11 11 11 11 11 10 8 5 6 6 6 9 8 9 9 9 10 11
4 4 5 8 8 7 8 9 9 9 8 9 9 10 11 11 11 11 10 10 10 10 10 10 11 11 11 11 11 10 10 8 6 5 5 6 9 8 8 8 8 9 9
4 3 3 5 7 8 8 9 9 9 9 8 9 10 11 11 10 9 9 9 9 9 9 9 9 10 10 10 10 9 7 4 6 5 4 7 10 8 7 6 7 7 8
4 2 1 3 5 6 6 6 8 8 8 8 9 11 10 7 7 6 8 9 9 8 8 8 8 8 6 7 8 7 4 4 5 4 4 9 10 8 7 5 5 6 6
3 3 1 3 4 5 4 5 5 5 5 6 6 8 6 5 5 5 8 8 8 8 7 7 6 5 3 4 4 3 3 4 4 3 4 9 10 9 7 5 4 4 4
5 4 3 3 4 5 4 3 2 2 2 3 5 6 5 5 4 4 3 4 4 4 3 4 2 3 4 4 4 4 4 4 3 3 4 8 9 9 7 6 5 3 2
6 5 3 3 4 5 4 3 2 2 2 2 3 4 4 3 4 3 2 2 2 2 2 2 2 3 3 4 4 4 4 4 3 3 3 6 9 9 9 7 6 5 3
6 5 2 2 5 5 4 4 4 4 4 5 5 5 4 4 4 4 3 3 3 2 2 2 2 3 3 4 4 4 5 5 5 4 3 4 8 9 9 9 8 7 6
8 6 2 3 5 6 6 6 6 6 6 7 7 7 7 5 5 5 5 4 4 4 3 3 4 3 3 4 4 5 5 5 5 5 5 4 5 7 9 10 10 9 9
7 6 5 6 8 10 10 10 8 8 8 8 8 9 9 8 7 6 6 5 5 5 4 4 4 3 3 4 5 5 5 5 6 6 6 5 5 5 7 9 10 10 10
7 7 8 8 12 13 13 12 10 9 10 9 8 9 11 11 9 7 7 6 6 5 4 4 4 4 4 5 5 5 5 5 6 6 5 5 5 5 5 7 10 11 11
7 8 10 11 14 15 15 13 12 11 11 9 9 9 10 12 11 9 8 7 7 6 6 5 5 5 6 7 6 6 6 5 5 5 5 5 5 5 5 6 8 9 11
7 8 11 12 13 13 12 12 11 12 11 10 10 11 12 11 12 10 9 10 8 7 8 7 7 6 6 7 7 6 5 4 3 4 5 4 4 5 5 6 6 5 9
8 10 10 11 10 9 8 8 9 10 10 10 11 13 14 13 13 12 9 10 9 9 10 10 7 8 8 8 6 6 4 2 3 4 4 4 4 5 5 6 5 6 6
9 10 10 11 10 10 9 9 9 10 10 10 10 13 14 14 13 11 12 10 9 9 11 11 10 7 6 8 7 6 6 3 3 4 4 4 5 5 6 7 7 7 7
10 10 10 12 13 13 13 11 11 10 9 9 10 10 12 13 13 12 12 11 10 10 9 11 10 10 7 7 7 6 6 6 8 5 5 4 5 7 8 8 9 9 9
10 10 12 13 13 12 11 11 13 11 11 10 8 9 11 12 12 12 11 11 10 9 9 9 9 8 8 6 5 5 4 5 7 8 6 6 9 10 10 8 10 10 10
10 11 12 14 14 13 13 14 14 13 11 8 8 10 9 9 11 10 10 9 9 8 8 9 8 8 6 6 5 5 5 5 6 7 10 11 10 9 10 11 10 10 10
10 11 12 14 14 12 13 13 14 14 12 11 9 8 7 6 7 9 8 8 8 7 8 7 7 7 6 6 5 4 5 5 6 8 11 14 14 12 13 11 10 9 9
Wind_Direction
170 163 158 154 146 140 134 130 126 123 119 116 111 106 100 94 87 80 75 71 67 64 62 60 59 57 59 58 61 64 64 63 62 60 60 59 56 54 49 39 36 52 47
159 163 157 157 150 145 140 137 133 129 125 120 114 108 101 94 88 81 75 70 66 64 62 61 60 58 59 59 62 67 70 67 64 58 55 70 59 52 50 45 40 43 44
160 163 162 159 151 147 143 142 139 135 130 123 117 110 102 95 88 82 75 69 65 63 61 60 59 58 57 58 61 69 73 71 66 53 42 58 61 52 49 46 43 42 41
161 165 165 157 153 149 147 146 145 141 135 128 122 115 107 99 90 83 76 69 64 62 60 58 57 55 53 52 60 67 71 71 62 35 53 51 56 51 47 45 43 41 39
162 169 160 160 157 153 151 151 152 147 141 135 129 121 112 102 93 85 77 70 64 62 60 57 55 53 51 50 58 63 65 68 59 50 54 47 52 47 45 44 43 41 38
161 172 162 169 161 158 156 156 156 152 147 142 134 125 116 107 97 88 80 73 67 63 60 57 54 52 50 48 54 58 58 51 42 54 48 42 48 45 45 45 43 41 39
156 171 170 173 168 163 161 160 160 158 153 148 138 129 122 113 103 93 84 76 69 64 61 57 54 52 50 48 50 52 49 32 41 50 43 41 42 39 46 45 42 41 41
143 164 171 169 177 171 168 166 163 161 156 151 142 136 128 120 110 99 89 80 72 66 63 59 55 52 49 47 48 46 40 21 43 43 40 42 27 33 43 43 43 43 43
113 150 172 183 188 184 179 175 169 165 161 156 148 139 131 124 115 105 95 86 77 71 70 65 60 54 49 47 47 43 38 16 26 38 33 33 10 23 37 40 43 42 41
82 116 170 192 198 197 191 182 176 172 167 159 148 137 130 126 121 115 108 96 86 80 78 75 70 62 54 49 46 40 29 4 29 30 28 21 3 14 29 36 40 38 39
60 55 195 206 207 207 202 185 183 176 167 160 149 138 140 135 128 119 107 105 98 91 85 84 82 75 68 60 48 34 19 24 20 19 23 7 359 3 15 27 31 30 35
4 348 285 229 212 207 200 199 197 187 175 168 154 149 145 130 122 115 111 105 102 99 97 94 94 86 48 44 53 25 28 19 12 15 19 1 354 352 357 3 7 16 25
328 314 282 239 216 204 193 194 184 170 163 148 144 141 133 126 118 109 108 108 106 108 103 104 93 35 29 24 15 20 16 5 5 357 7 357 346 343 341 340 341 337 352
335 320 283 231 204 194 181 162 141 117 108 106 102 113 125 122 111 105 93 89 85 74 74 59 44 34 21 16 6 1 359 353 349 342 346 344 336 334 330 325 320 318 305
348 338 296 198 179 166 147 109 87 75 69 68 63 60 74 95 98 88 77 66 60 52 52 41 34 17 1 357 353 346 342 339 330 324 319 323 321 323 323 319 314 306 303
350 350 39 119 131 116 102 89 76 67 65 62 57 54 59 70 79 80 74 60 49 41 41 36 30 9 358 348 339 337 326 324 317 313 310 304 295 307 314 314 310 305 302
350 8 59 84 95 94 87 81 71 64 63 59 55 51 53 58 69 72 68 57 45 42 43 42 34 18 4 348 335 330 318 311 308 306 305 303 303 297 304 312 314 310 303
15 43 62 79 88 86 84 79 73 66 64 59 54 52 52 55 62 66 64 55 46 46 43 39 26 13 9 351 335 326 312 306 304 305 302 303 309 313 313 323 324 321 316
36 61 76 84 88 88 87 82 76 70 64 60 56 53 53 55 58 64 58 50 47 45 39 32 30 13 3 349 332 318 314 313 316 318 321 324 327 326 325 331 330 326 323
58 74 84 88 94 96 93 89 82 73 68 63 59 57 57 56 57 63 61 52 49 47 39 30 31 26 12 346 323 315 318 329 338 350 347 348 350 347 342 339 331 330 327
71 77 86 93 98 102 100 94 87 78 73 68 62 60 59 59 58 58 59 53 49 49 42 32 25 23 19 355 336 331 330 349 19 14 5 2 10 7 356 347 338 332 323
80 82 84 86 87 88 92 93 91 94 82 78 72 64 60 59 57 56 57 55 49 49 44 36 30 24 24 17 357 336 337 333 12 352 356 359 1 357 350 344 336 327 320
83 84 87 88 89 92 98 102 104 98 93 82 74 68 61 61 60 58 57 55 49 46 43 36 29 29 22 24 24 7 345 336 328 312 335 333 339 337 333 329 323 318 312
92 93 93 92 91 92 98 101 103 100 94 87 83 79 71 62 59 56 54 52 49 46 43 35 31 25 21 16 16 17 347 322 311 314 309 315 326 322 319 317 314 310 303
103 101 100 97 93 93 95 98 99 97 98 97 91 83 76 66 57 52 49 48 45 41 37 31 25 23 20 12 0 344 332 312 288 294 301 311 312 309 313 311 305 300 299
113 109 107 103 98 98 98 97 99 102 104 99 90 83 74 67 58 48 44 43 38 33 27 19 14 12 6 356 345 331 321 311 312 301 298 303 304 306 307 301 296 296 298